Погода Александров Гай

Погода Александров Гай : погода сейчас, прогноз погоды и архив. Всё, что Вы хотите узнать о погоде Александров Гай!

Хотите узнать прогноз погоды Александров Гай? Тогда Вам сюда: Погода Александров Гай

Поиск расширенной информации на нашем сайте:

Другие новости

Новости СМИ2

Главная страница сайта

Новости сайта

03.07.2017

Напоминаем, что на нашем специализированном сайте Метеоцентр.Азия вы можете получить высокодетализированные автоматические прогнозы погоды по пунктам России, СНГ и мира в авиационном формате (включающие направление и скорость ветра, видимость, явления погоды, количество и форму облачности, нижнюю и верхнюю границу облачности).


Погода Александров Гай - сегодня

Время (UTC), дата Ветер
(°,м/с) 
Видим.   Явления Облачность Т
(°С)
Тd
(°С)
f(%) Тe
(°С)
Pmin
(гПа)
dP
(гПа)
Po
(мм)
O2
(г/м3)
Тmin Tmax R s Состояние
почвы
09 18.07.17 090 (В) 10 км    9/9 840 м 
[Sc]
+29.7 +10.4 30 +31  1014.4  -0.4  759  274           
12 18.07.17 270 (З) 10 км    3/1 1000 м верхняя 
[Cu med, cong|Ci sp]
+34.5 +7 18 +35  1013.2  -1.2  758  270           
15 18.07.17 160 (Ю) 10 км    3/3 1000 м верхняя 
[Cu med, cong|Ci sp]
+34.5 +3.6 14 +35  1011.7  -1.5  757  270    +36.2       
18 18.07.17 020 (С) 10 км    3/0 средняя 
[Ac As]
+25.7 +6.5 29 +26  1011.9  0.1  757  278           
21 18.07.17 360 (С) 10 км    ясно 
+22.7 +14.4 59 +30  1012  0.1  757  279           
00 19.07.17 360 (С) 10 км    8/0 средняя 
[Ac As]
+21.3 +16.9 76 +33  1012.1  0.1  757  279           
03 19.07.17 360 (С) 10 км    8/0 средняя, верхняя 
[Ac As|Ci fib]
+20 +17 83 +32  1013.1  758  281  +19.8        сухая 
06 19.07.17 070 (В) 10 км    9/0 средняя, верхняя 
[Ac As|Ci fib]
+22.8 +17.1 70 +35  1013  -0.1  758  278           
09 19.07.17 360 (С) 10 км    9/3 1000 м средняя 
[Cu med, cong|Ac As]
+25.3 +17.1 60 +37  1013.7  0.8  758  276           
12 19.07.17 070 (В) 10 км  {ливн. осадки}  9/3 1000 м кучево-дожд., средняя 
[Cb calv|Ac As]
+29.5 +13.9 39 +36  1012.4  -1.3  757  273           
15 19.07.17 050 (СВ) 10 км    8/0 средняя, верхняя 
[Ac As|Ci fib]
+28.9 +12.8 37 +34  1011.6  -0.8  757  273    +30.1  0.0     
18 19.07.17 090 (В) 10 км    9/9 800 м 
[Sc]
+26.5 +12.4 42 +31  1011.6  757  276           
21 19.07.17 070 (В) 10 км    9/9 750 м 
[Sc]
+23.2 +12.5 51 +28  1011.5  -0.2  756  279           
00 20.07.17 070 (В) 10 км    9/9 700 м 
[Sc]
+22.6 +16.2 67 +33  1010.7  -0.8  756  278           
03 20.07.17 020 (С) 10 км    9/9 700 м 
[Sc]
+22.2 +16.1 68 +33  1010.8  0.1  756  278  +20.8        сухая 
06 20.07.17 050 (СВ) 10 км    9/9 700 м 
[Sc]
+27.3 +15.1 47 +36  1011.3  0.6  756  274           
09 20.07.17 070 (В) 10 км    9/9 800 м 
[Sc]
+30 +12.8 35 +35  1011.2  -0.1  756  272           
12 20.07.17 090 (В) 6-11{11}  10 км    9/9 800 м 
[Sc]
+32.5 +12.1 29 +36  1009.9  -1.3  755  270           
15 20.07.17 070 (В) 5-11{12}  10 км    10/0 верхняя 
[Ci sp]
+29.8 +10.9 31 +32  1008.5  -1.4  754  272    +32.7       
18 20.07.17 090 (В) 4-10{11}  10 км    10/0 средняя 
[Ac As]
+26.6 +10.9 37 +29  1008.3  -0.2  754  275           
21 20.07.17 110 (В) 4-10{10}  10 км    9/0 средняя 
[Ac As]
+25.9 +12.2 43 +30  1007.8  -0.5  754  275           
00 21.07.17 050 (СВ) 3{10}  10 км  зарница  9/4 1000 м кучево-дожд., средняя, верхняя 
[Cb cap|Ac As|Ci fib]
+21.8 +12.5 55 +26  1007.4  -0.4  753  279           
03 21.07.17 020 (С) 10 км  гроза без осадков  9/5 1000 м кучево-дожд., средняя, верхняя 
[Cb cap|Ac As|Ci fib]
+21.1 +13.6 62 +27  1007.6  0.2  754  279  +21        сухая 
06 21.07.17 050 (СВ) 3{10}  10 км    8/6 800 м верхняя 
[Sc|Ci sp]
+27.9 +14.9 45 +36  1008.1  0.5  754  273           
09 21.07.17 360 (С) 4{11}  10 км    9/8 840 м верхняя 
[Sc|Ci sp]
+28 +14 42 +35  1009  0.9  755  273           
Время (UTC), дата Ветер
(°,м/с) 
Видим.   Явления Облачность Т
(°С)
Тd
(°С)
f(%) Тe
(°С)
Pmin
(гПа)
dP
(гПа)
Po
(мм)
O2
(г/м3)
Тmin Tmax R s Состояние
почвы

Для получения пояснительной информации подведите курсор к названию столбца.

ПОГОДА Александров Гай - архив

Всё, что Вы хотите узнать о погоде Александров Гай - удобно и подробно!

Выберите нужную дату (начиная с 1 января 2015* года) и нажмите кнопку "Найти".
Будут отображены архивные сводки погоды по пункту Александров Гай, начиная с указанной даты.


Отображать данные в формате CSV (для использования в таблицах Excel)


Внимание! Наш архив погоды предназначен исключительно для личного некоммерческого использования в познавательных целях. Если Вам необходимы официальные справки о состоянии погоды (для производственных, юридических, коммерческих и т.п. целей), обращайтесь в органы Росгидромета.

*Примечание: данная дата относится к архиву по метеостанциям СССР (Россия, СНГ, Балтия).
Архив по метеостанциям Зарубежной Европы и Азии (кроме Китая) хранится 10 дней, по другим регионам земного шара (Китай, Африка, Америка, Австралия, Океания) - 1 день.

Александров Гай - район местоположения метеостанции


Название, широта, долгота, высота метеостанции:
Александров Гай 50.2°ш. 48.6°д. 25 м над ур. моря [Российская Федерация]

Дополнительная информация

В oтличие oт бoльшинства пoгoдных сайтoв мы публикуем пoдрoбную метеoинфoрмацию в детальнoм прoфессиoнальнoм фoрмате.

Характеристики температуры и влажнoсти вoздуха измеряются на высoте 2 м в тени вдали oт зданий и деревьев.
Скoрoсть ветра измеряется на высoте 10 м (на урoвне рoста челoвека скoрoсть ветра ниже в 1.5-2 раза). Если метеoстанция нахoдится в гoрoде или в лесу, тo скoрoсть ветра занижена на 2-4 м/с пo сравнению с oткрытым местoм. Скoрoсть ветра над акватoриями крупных рек и oзёр, а также на вершинах хoлмoв на 2-5 м/с выше, чем в oбычных услoвиях.
Атмoсфернoе давление в разных тoчках местнoсти мoжет значительнo oтличаться oт давления на метеoстанции, в зависимoсти oт услoвий рельефа (при пoдъёме на 10 м давление пoнижается примернo на 1 мм рт.ст.).